Home   Weather   Araguaína   Past weeks

Flag for Brazil Past Weather in Araguaína, Tocantins, Brazil — Yesterday and Last 2 Weeks

Now
75 °F

Clear.


Feels Like: 74 °F
Forecast: 74 / 91 °F
Wind: 3 mph from South

Location: Maraba Airport

Current Time: Dec 9, 2016 at 2:50:58 am

Latest Report: Dec 9, 2016 at 1:00 am


Visibility: 10 mi

Pressure: 29.83 "Hg

Humidity: 94%

Dew Point: 73 °F

Location of AraguaínaLocation

Past Weather in Araguaína — Graph

°F

Araguaína Temperature Yesterday

Maximum temperature yesterday: 91 °F (at 1:00 pm)
Minimum temperature yesterday: 75 °F (at 2:00 am)
Average temperature yesterday: 81 °F

High & Low Weather Summary for the Past Weeks

 TemperatureHumidityPressure
High99 °F (Dec 1, 2:00 pm)100% (Nov 24, 1:00 am)29.98 "Hg (Nov 24, 1:00 am)
Low72 °F (Nov 27, 3:00 am)42% (Nov 28, 1:00 pm)29.74 "Hg (Nov 26, 4:00 am)
Average83 °F80%29.84 "Hg
* Reported Nov 24 1:00 am — Dec 9 1:00 am, Araguaína, Weather by CustomWeather, © 2016

Note: Actual official high and low records may vary slightly from our data, if they occured in-between our weather recording intervals... More about our weather records

Advertising

Araguaína Weather History for the Previous 24 Hours

Scroll right to see more
 ConditionsComfort  
Time TempWeatherWind HumidityBarometerVisibility
1:00 am
Fri, Dec 9
75 °FClear.3 mph94%29.83 "Hg10 mi
12:00 am75 °FClear.2 mph94%29.86 "Hg10 mi
11:00 pm
Thu, Dec 8
75 °FClear.2 mph94%29.86 "Hg10 mi
10:00 pm75 °FClear.3 mph94%29.83 "Hg10 mi
9:00 pm77 °FClear.3 mph89%29.83 "Hg10 mi
8:00 pm77 °FFog.2 mph89%29.80 "Hg3 mi
7:00 pm81 °FClear.3 mph79%29.80 "Hg10 mi
6:00 pm84 °FSunny.3 mph70%29.80 "Hg10 mi
5:00 pm88 °FPassing clouds.6 mph62%29.80 "HgN/A
4:00 pm90 °FScattered clouds.7 mph49%29.80 "HgN/A
3:00 pm90 °FScattered clouds.6 mph59%29.80 "HgN/A
2:00 pm91 °FScattered clouds.5 mph59%29.83 "HgN/A
1:00 pm91 °FScattered clouds.5 mph59%29.86 "HgN/A
12:00 pm90 °FPartly sunny.3 mph63%29.89 "HgN/A
11:00 am90 °FPartly sunny.2 mph63%29.92 "HgN/A
10:00 am86 °FPartly sunny.2 mph66%29.95 "HgN/A
9:00 am81 °FPartly sunny.2 mph74%29.95 "HgN/A
8:00 am77 °FPartly sunny.1 mph89%29.92 "HgN/A
7:00 am75 °FPartly sunny.3 mph89%29.89 "HgN/A
6:00 am75 °FSunny.3 mph89%29.89 "Hg10 mi
5:00 am77 °FPartly cloudy.6 mph89%29.86 "HgN/A
4:00 am77 °FPassing clouds.6 mph94%29.86 "HgN/A
3:00 am77 °FClear.7 mph100%29.83 "Hg10 mi
2:00 am75 °FClear.2 mph100%29.83 "Hg10 mi
Weather by CustomWeather, © 2016

See weather overviewHow to use our weather pages